FORMOSAT-5 (42920 NORAD) Tracking and Keplerian Element Data

This shows tracking and keplerian element data for the satellite.

Feedback or suggestion? Click here.




ElementValue
Catalog42920
NameFORMOSAT-5
Epoch Orbit6497
Epoch Day319.85222327
Epoch Year2018
RAAN35.0618
Inclination98.3497
Eccentricity0.0009723
Argument of Perigee311.9417
Mean Anonmoly48.0798
Mean Motion14.5082725
Decay Rate1.39E-06
L11 42920U 17049A 18319.85222327 .00000139 00000-0 46572-4 0 9992
L22 42920 98.3497 35.0618 0009723 311.9417 48.0798 14.50827250 64975

Live tracking and technical data element details for FORMOSAT-5 (NORAD 42920). FORMOSAT-5 can be tracked NOW for your location showing map with azimuth and elevation plus other details from your city location.

Track the satellite on the map from your city or location and see movement details for azimuth, elevation, latitude, longitude, range, height, and movement on the map or in text.







IsCatalogInMostPopularTable: catalog: 42920, numindb: 162
Update: records affected: 1



GetName: 42920 FORMOSAT-5

Hit Count: updated at: Fri, 16 Nov 2018 06:04:32 GMT